| time (UTC) | temp F | wind direction | speed MPH | gust MPH | rain 1hr in | rain 24hr in | rain mn in | humidity % | barometer mb |
| 20260507114010 | 47 | 257 | 1.0 | 5.0 | 0.00 | 0.00 | 0.00 | 74 | 1013.9 |
| 20260507113509 | 47 | 215 | 0.0 | 3.0 | 0.00 | 0.00 | 0.00 | 74 | 1013.9 |
| 20260507113009 | 47 | 302 | 1.0 | 3.0 | 0.00 | 0.00 | 0.00 | 74 | 1013.9 |
| 20260507112508 | 47 | 304 | 1.0 | 3.0 | 0.00 | 0.00 | 0.00 | 74 | 1013.9 |
| 20260507112009 | 47 | 273 | 1.0 | 3.0 | 0.00 | 0.00 | 0.00 | 74 | 1014.0 |
| 20260507111510 | 47 | 198 | 1.0 | 3.0 | 0.00 | 0.00 | 0.00 | 74 | 1013.9 |
| 20260507111009 | 47 | 221 | 1.0 | 3.0 | 0.00 | 0.00 | 0.00 | 74 | 1013.9 |
| 20260507110509 | 47 | 216 | 1.0 | 3.0 | 0.00 | 0.00 | 0.00 | 73 | 1013.8 |
| 20260507110008 | 47 | 231 | 1.0 | 5.0 | 0.00 | 0.00 | 0.00 | 73 | 1013.8 |
| 20260507105009 | 47 | 201 | 0.0 | 2.0 | 0.00 | 0.00 | 0.00 | 73 | 1013.7 |
| 20260507104510 | 48 | 216 | 0.0 | 2.0 | 0.00 | 0.00 | 0.00 | 73 | 1013.7 |
| 20260507104009 | 48 | 233 | 0.0 | 3.0 | 0.00 | 0.00 | 0.00 | 72 | 1013.7 |
| 20260507103009 | 48 | 240 | 1.0 | 5.0 | 0.00 | 0.00 | 0.00 | 72 | 1013.7 |
| 20260507102509 | 48 | 207 | 1.0 | 3.0 | 0.00 | 0.00 | 0.00 | 72 | 1013.7 |
| 20260507102009 | 48 | 222 | 1.0 | 3.0 | 0.00 | 0.00 | 0.00 | 72 | 1013.7 |
| 20260507100509 | 48 | 217 | 1.0 | 3.0 | 0.00 | 0.00 | 0.00 | 71 | 1013.7 |
| 20260507100009 | 48 | 0 | 1.0 | 5.0 | 0.00 | 0.00 | 0.00 | 71 | 1013.8 |
| 20260507095509 | 48 | 195 | 1.0 | 5.0 | 0.00 | 0.00 | 0.00 | 71 | 1013.9 |
| 20260507095009 | 48 | 0 | 1.0 | 5.0 | 0.00 | 0.00 | 0.00 | 71 | 1013.9 |
| 20260507094508 | 48 | 0 | 2.0 | 5.0 | 0.00 | 0.00 | 0.00 | 71 | 1013.9 |
| 20260507094009 | 48 | 188 | 2.0 | 5.0 | 0.00 | 0.00 | 0.00 | 71 | 1014.0 |
| 20260507093509 | 48 | 225 | 2.0 | 5.0 | 0.00 | 0.00 | 0.00 | 71 | 1014.0 |
| 20260507093010 | 48 | 213 | 2.0 | 3.0 | 0.00 | 0.00 | 0.00 | 71 | 1014.1 |
| 20260507092510 | 48 | 211 | 1.0 | 3.0 | 0.00 | 0.00 | 0.00 | 71 | 1014.2 |
| 20260507091510 | 48 | 229 | 1.0 | 3.0 | 0.00 | 0.00 | 0.00 | 71 | 1014.3 |
| 20260507091010 | 48 | 229 | 1.0 | 3.0 | 0.00 | 0.00 | 0.00 | 70 | 1014.3 |
| 20260507090010 | 47 | 222 | 1.0 | 3.0 | 0.00 | 0.00 | 0.00 | 70 | 1014.4 |
| 20260507085510 | 47 | 252 | 2.0 | 3.0 | 0.00 | 0.00 | 0.00 | 70 | 1014.6 |
| 20260507085011 | 47 | 222 | 1.0 | 5.0 | 0.00 | 0.00 | 0.00 | 70 | 1014.6 |
| 20260507084510 | 47 | 219 | 1.0 | 5.0 | 0.00 | 0.00 | 0.00 | 70 | 1014.7 |
| 20260507084010 | 46 | 227 | 1.0 | 3.0 | 0.00 | 0.00 | 0.00 | 70 | 1014.9 |
| 20260507083010 | 46 | 204 | 1.0 | 3.0 | 0.00 | 0.00 | 0.00 | 69 | 1015.0 |
| 20260507082510 | 46 | 226 | 1.0 | 3.0 | 0.00 | 0.00 | 0.00 | 69 | 1015.0 |
| 20260507082011 | 45 | 233 | 1.0 | 3.0 | 0.00 | 0.00 | 0.00 | 68 | 1015.1 |
| 20260507081510 | 45 | 223 | 1.0 | 3.0 | 0.00 | 0.00 | 0.00 | 66 | 1015.1 |
| 20260507081010 | 45 | 248 | 0.0 | 3.0 | 0.00 | 0.00 | 0.00 | 66 | 1015.2 |
| 20260507080509 | 45 | 249 | 1.0 | 2.0 | 0.00 | 0.00 | 0.00 | 66 | 1015.3 |
| 20260507080009 | 45 | 192 | 0.0 | 1.0 | 0.00 | 0.00 | 0.00 | 66 | 1015.3 |
| 20260507075509 | 45 | 192 | 0.0 | 1.0 | 0.00 | 0.00 | 0.00 | 65 | 1015.5 |
| 20260507074512 | 45 | 192 | 0.0 | 2.0 | 0.00 | 0.00 | 0.00 | 65 | 1015.5 |
| 20260507074010 | 45 | 192 | 0.0 | 2.0 | 0.00 | 0.00 | 0.00 | 65 | 1015.5 |
| 20260507073510 | 44 | 134 | 0.0 | 2.0 | 0.00 | 0.00 | 0.00 | 65 | 1015.6 |
| 20260507072009 | 44 | 135 | 0.0 | 0.0 | 0.00 | 0.00 | 0.00 | 64 | 1015.8 |
| 20260507071010 | 44 | 136 | 0.0 | 1.0 | 0.00 | 0.00 | 0.00 | 64 | 1016.0 |
| 20260507070508 | 44 | 136 | 0.0 | 1.0 | 0.00 | 0.00 | 0.00 | 63 | 1016.1 |
| 20260507065509 | 44 | 136 | 0.0 | 1.0 | 0.00 | 0.00 | 0.00 | 62 | 1016.2 |
| 20260507065009 | 44 | 137 | 0.0 | 1.0 | 0.00 | 0.00 | 0.00 | 62 | 1016.4 |
| 20260507064509 | 45 | 137 | 0.0 | 0.0 | 0.00 | 0.00 | 0.00 | 61 | 1016.4 |
| 20260507064009 | 45 | 137 | 0.0 | 0.0 | 0.00 | 0.00 | 0.00 | 61 | 1016.4 |
| 20260507063509 | 45 | 137 | 0.0 | 0.0 | 0.00 | 0.00 | 0.00 | 61 | 1016.4 |
| 20260507063010 | 45 | 137 | 0.0 | 0.0 | 0.00 | 0.00 | 0.00 | 62 | 1016.4 |
| 20260507062509 | 45 | 137 | 0.0 | 1.0 | 0.00 | 0.00 | 0.00 | 62 | 1016.6 |
| 20260507062010 | 45 | 137 | 0.0 | 2.0 | 0.00 | 0.00 | 0.00 | 62 | 1016.6 |
| 20260507061509 | 45 | 137 | 0.0 | 2.0 | 0.00 | 0.00 | 0.00 | 62 | 1016.6 |
| 20260507061009 | 45 | 137 | 0.0 | 2.0 | 0.00 | 0.00 | 0.00 | 62 | 1016.7 |
| 20260507060508 | 45 | 137 | 1.0 | 3.0 | 0.00 | 0.00 | 0.00 | 62 | 1016.7 |
| 20260507055508 | 45 | 137 | 0.0 | 2.0 | 0.00 | 0.00 | 0.00 | 63 | 1016.7 |
| 20260507054512 | 45 | 137 | 0.0 | 2.0 | 0.00 | 0.00 | 0.00 | 64 | 1016.7 |
| 20260507054009 | 45 | 137 | 1.0 | 2.0 | 0.00 | 0.00 | 0.00 | 64 | 1016.8 |
| 20260507053509 | 45 | 137 | 1.0 | 2.0 | 0.00 | 0.00 | 0.00 | 65 | 1016.8 |
| 20260507053011 | 45 | 137 | 0.0 | 2.0 | 0.00 | 0.00 | 0.00 | 65 | 1016.8 |
| 20260507052508 | 44 | 137 | 0.0 | 2.0 | 0.00 | 0.00 | 0.00 | 66 | 1016.9 |
| 20260507052010 | 44 | 137 | 0.0 | 2.0 | 0.00 | 0.00 | 0.00 | 65 | 1016.8 |
| 20260507051510 | 44 | 137 | 0.0 | 3.0 | 0.00 | 0.00 | 0.00 | 65 | 1016.8 |
| 20260507051010 | 44 | 137 | 1.0 | 3.0 | 0.00 | 0.00 | 0.00 | 64 | 1016.8 |
| 20260507050010 | 44 | 100 | 0.0 | 2.0 | 0.00 | 0.00 | 0.00 | 63 | 1017.0 |
| 20260507045512 | 44 | 100 | 1.0 | 2.0 | 0.00 | 0.00 | 0.00 | 62 | 1016.9 |
| 20260507045011 | 44 | 341 | 0.0 | 1.0 | 0.00 | 0.00 | 0.00 | 61 | 1017.0 |
| 20260507044510 | 45 | 341 | 0.0 | 1.0 | 0.00 | 0.00 | 0.00 | 61 | 1017.0 |
| 20260507044011 | 45 | 341 | 0.0 | 1.0 | 0.00 | 0.00 | 0.00 | 61 | 1017.1 |
| 20260507043509 | 45 | 341 | 0.0 | 1.0 | 0.00 | 0.00 | 0.00 | 61 | 1017.2 |
| 20260507043011 | 45 | 341 | 0.0 | 2.0 | 0.00 | 0.00 | 0.00 | 61 | 1017.2 |
| 20260507042510 | 45 | 341 | 0.0 | 2.0 | 0.00 | 0.00 | 0.00 | 60 | 1017.2 |
| 20260507042011 | 45 | 341 | 0.0 | 2.0 | 0.00 | 0.00 | 0.00 | 59 | 1017.2 |
| 20260507040009 | 46 | 341 | 0.0 | 1.0 | 0.00 | 0.00 | 0.00 | 56 | 1017.5 |
| 20260507035508 | 46 | 341 | 0.0 | 1.0 | 0.00 | 0.00 | 0.00 | 55 | 1017.5 |
| 20260507035009 | 46 | 341 | 0.0 | 1.0 | 0.00 | 0.00 | 0.00 | 55 | 1017.5 |
| 20260507034509 | 47 | 341 | 0.0 | 1.0 | 0.00 | 0.00 | 0.00 | 55 | 1017.5 |
| 20260507034009 | 47 | 341 | 0.0 | 0.0 | 0.00 | 0.00 | 0.00 | 53 | 1017.6 |
| 20260507033509 | 47 | 341 | 0.0 | 0.0 | 0.00 | 0.00 | 0.00 | 53 | 1017.5 |
| 20260507033011 | 47 | 341 | 0.0 | 0.0 | 0.00 | 0.00 | 0.00 | 51 | 1017.5 |
| 20260507032508 | 48 | 341 | 0.0 | 0.0 | 0.00 | 0.00 | 0.00 | 51 | 1017.6 |
| 20260507032010 | 48 | 341 | 0.0 | 0.0 | 0.00 | 0.00 | 0.00 | 50 | 1017.7 |
| 20260507031510 | 48 | 342 | 0.0 | 0.0 | 0.00 | 0.00 | 0.00 | 48 | 1017.6 |
| 20260507031009 | 48 | 341 | 0.0 | 0.0 | 0.00 | 0.00 | 0.00 | 48 | 1017.6 |
| 20260507030509 | 49 | 341 | 0.0 | 0.0 | 0.00 | 0.00 | 0.00 | 47 | 1017.7 |
| 20260507030010 | 49 | 342 | 0.0 | 0.0 | 0.00 | 0.00 | 0.00 | 46 | 1017.7 |
| 20260507025509 | 49 | 341 | 0.0 | 0.0 | 0.00 | 0.00 | 0.00 | 47 | 1017.7 |
| 20260507025010 | 50 | 342 | 0.0 | 0.0 | 0.00 | 0.00 | 0.00 | 46 | 1017.7 |
| 20260507024010 | 50 | 342 | 0.0 | 0.0 | 0.00 | 0.00 | 0.00 | 45 | 1017.5 |
| 20260507023010 | 51 | 342 | 0.0 | 0.0 | 0.00 | 0.00 | 0.00 | 44 | 1017.4 |
| 20260507022510 | 52 | 342 | 0.0 | 0.0 | 0.00 | 0.00 | 0.00 | 43 | 1017.3 |
| 20260507021510 | 52 | 342 | 0.0 | 0.0 | 0.00 | 0.00 | 0.00 | 41 | 1017.3 |
| 20260507021010 | 53 | 342 | 0.0 | 0.0 | 0.00 | 0.00 | 0.00 | 40 | 1017.2 |
| 20260507020010 | 54 | 342 | 0.0 | 0.0 | 0.00 | 0.00 | 0.00 | 38 | 1017.2 |
| 20260507015509 | 54 | 342 | 0.0 | 0.0 | 0.00 | 0.00 | 0.00 | 37 | 1017.2 |
| 20260507014510 | 56 | 342 | 0.0 | 0.0 | 0.00 | 0.00 | 0.00 | 36 | 1017.2 |
| 20260507014011 | 56 | 342 | 0.0 | 0.0 | 0.00 | 0.00 | 0.00 | 35 | 1017.2 |
| 20260507013510 | 57 | 342 | 0.0 | 0.0 | 0.00 | 0.00 | 0.00 | 34 | 1017.1 |
| 20260507013010 | 57 | 342 | 0.0 | 0.0 | 0.00 | 0.00 | 0.00 | 33 | 1017.1 |
| 20260507012509 | 58 | 342 | 0.0 | 0.0 | 0.00 | 0.00 | 0.00 | 32 | 1017.0 |
| 20260507012010 | 58 | 342 | 0.0 | 0.0 | 0.00 | 0.00 | 0.00 | 31 | 1017.1 |
| 20260507011510 | 59 | 342 | 0.0 | 1.0 | 0.00 | 0.00 | 0.00 | 30 | 1017.1 |
| 20260507011010 | 59 | 316 | 0.0 | 3.0 | 0.00 | 0.00 | 0.00 | 30 | 1017.1 |
| 20260507010510 | 60 | 333 | 0.0 | 3.0 | 0.00 | 0.00 | 0.00 | 29 | 1017.0 |
| 20260507005509 | 60 | 296 | 0.0 | 5.0 | 0.00 | 0.00 | 0.00 | 29 | 1017.2 |
| 20260507005010 | 60 | 296 | 1.0 | 5.0 | 0.00 | 0.00 | 0.00 | 28 | 1017.2 |
| 20260507004510 | 60 | 253 | 1.0 | 3.0 | 0.00 | 0.00 | 0.00 | 28 | 1017.2 |
| 20260507004011 | 60 | 355 | 1.0 | 3.0 | 0.00 | 0.00 | 0.00 | 29 | 1017.2 |
| 20260507002509 | 60 | 277 | 1.0 | 5.0 | 0.00 | 0.00 | 0.00 | 29 | 1017.2 |
| 20260507002010 | 61 | 252 | 2.0 | 7.0 | 0.00 | 0.00 | 0.00 | 29 | 1017.3 |
| 20260507001011 | 60 | 268 | 2.0 | 6.0 | 0.00 | 0.00 | 0.00 | 29 | 1017.4 |
| 20260507000009 | 61 | 266 | 2.0 | 6.0 | 0.00 | 0.00 | 0.00 | 29 | 1017.7 |
| 20260506235010 | 61 | 290 | 3.0 | 6.0 | 0.00 | 0.00 | 0.00 | 29 | 1017.9 |
| 20260506234509 | 62 | 325 | 2.0 | 5.0 | 0.00 | 0.00 | 0.00 | 27 | 1017.9 |
| 20260506234010 | 62 | 302 | 1.0 | 7.0 | 0.00 | 0.00 | 0.00 | 27 | 1017.9 |
| 20260506233508 | 62 | 244 | 2.0 | 7.0 | 0.00 | 0.00 | 0.00 | 28 | 1017.9 |
| 20260506233009 | 62 | 308 | 2.0 | 7.0 | 0.00 | 0.00 | 0.00 | 29 | 1017.9 |
| 20260506232010 | 62 | 282 | 1.0 | 7.0 | 0.00 | 0.00 | 0.00 | 28 | 1017.9 |
| 20260506231510 | 62 | 278 | 2.0 | 6.0 | 0.00 | 0.00 | 0.00 | 29 | 1018.0 |
| 20260506231009 | 62 | 275 | 1.0 | 5.0 | 0.00 | 0.00 | 0.00 | 27 | 1018.0 |
| 20260506230508 | 62 | 277 | 2.0 | 9.0 | 0.00 | 0.00 | 0.00 | 27 | 1018.0 |
| 20260506230010 | 62 | 318 | 3.0 | 12.0 | 0.00 | 0.00 | 0.00 | 27 | 1018.0 |
| 20260506225010 | 62 | 269 | 5.0 | 12.0 | 0.00 | 0.00 | 0.00 | 29 | 1017.9 |
| 20260506224509 | 62 | 253 | 3.0 | 9.0 | 0.00 | 0.00 | 0.00 | 29 | 1018.0 |
| 20260506224009 | 62 | 254 | 2.0 | 9.0 | 0.00 | 0.00 | 0.00 | 29 | 1018.1 |
| 20260506223010 | 62 | 230 | 3.0 | 9.0 | 0.00 | 0.00 | 0.00 | 29 | 1018.2 |
| 20260506222509 | 62 | 259 | 2.0 | 10.0 | 0.00 | 0.00 | 0.00 | 30 | 1018.2 |
| 20260506222010 | 62 | 258 | 4.0 | 10.0 | 0.00 | 0.00 | 0.00 | 31 | 1018.3 |
| 20260506221510 | 61 | 256 | 2.0 | 10.0 | 0.00 | 0.00 | 0.00 | 30 | 1018.3 |
| 20260506220509 | 61 | 255 | 3.0 | 12.0 | 0.00 | 0.00 | 0.00 | 30 | 1018.3 |
| 20260506220010 | 61 | 257 | 3.0 | 12.0 | 0.00 | 0.00 | 0.00 | 29 | 1018.3 |
| 20260506215508 | 62 | 319 | 3.0 | 8.0 | 0.00 | 0.00 | 0.00 | 29 | 1018.3 |
| 20260506215010 | 62 | 275 | 3.0 | 12.0 | 0.00 | 0.00 | 0.00 | 29 | 1018.3 |
| 20260506214510 | 62 | 272 | 4.0 | 12.0 | 0.00 | 0.00 | 0.00 | 28 | 1018.4 |
| 20260506214010 | 62 | 249 | 5.0 | 12.0 | 0.00 | 0.00 | 0.00 | 29 | 1018.4 |
| 20260506213509 | 61 | 253 | 2.0 | 12.0 | 0.00 | 0.00 | 0.00 | 33 | 1018.5 |
| 20260506213011 | 60 | 299 | 3.0 | 12.0 | 0.00 | 0.00 | 0.00 | 30 | 1018.6 |
| 20260506212509 | 60 | 324 | 5.0 | 9.0 | 0.00 | 0.00 | 0.00 | 29 | 1018.6 |
| 20260506210509 | 59 | 255 | 3.0 | 13.0 | 0.00 | 0.00 | 0.00 | 31 | 1019.0 |
| 20260506210013 | 59 | 249 | 4.0 | 13.0 | 0.00 | 0.00 | 0.00 | 32 | 1018.8 |
| 20260506205509 | 59 | 256 | 1.0 | 7.0 | 0.00 | 0.00 | 0.00 | 31 | 1019.0 |
| 20260506205011 | 59 | 257 | 3.0 | 9.0 | 0.00 | 0.00 | 0.00 | 31 | 1019.1 |
| 20260506204510 | 59 | 256 | 2.0 | 9.0 | 0.00 | 0.00 | 0.00 | 31 | 1019.2 |
| 20260506204011 | 59 | 334 | 5.0 | 9.0 | 0.00 | 0.00 | 0.00 | 30 | 1019.2 |
| 20260506203510 | 59 | 250 | 3.0 | 7.0 | 0.00 | 0.00 | 0.00 | 30 | 1019.3 |
| 20260506203011 | 59 | 270 | 3.0 | 12.0 | 0.00 | 0.00 | 0.00 | 31 | 1019.3 |
| 20260506202510 | 59 | 258 | 3.0 | 12.0 | 0.00 | 0.00 | 0.00 | 31 | 1019.3 |
| 20260506202011 | 59 | 281 | 5.0 | 12.0 | 0.00 | 0.00 | 0.00 | 31 | 1019.4 |
| 20260506201510 | 59 | 297 | 2.0 | 6.0 | 0.00 | 0.00 | 0.00 | 30 | 1019.4 |
| 20260506201011 | 59 | 253 | 3.0 | 9.0 | 0.00 | 0.00 | 0.00 | 31 | 1019.4 |
| 20260506200010 | 60 | 262 | 2.0 | 10.0 | 0.00 | 0.00 | 0.00 | 30 | 1019.4 |
| 20260506195510 | 60 | 259 | 5.0 | 10.0 | 0.00 | 0.00 | 0.00 | 30 | 1019.6 |
| 20260506195011 | 60 | 260 | 2.0 | 10.0 | 0.00 | 0.00 | 0.00 | 30 | 1019.5 |
| 20260506194510 | 60 | 255 | 5.0 | 10.0 | 0.00 | 0.00 | 0.00 | 31 | 1019.4 |
| 20260506194010 | 59 | 213 | 3.0 | 9.0 | 0.00 | 0.00 | 0.00 | 34 | 1019.5 |
| 20260506193510 | 59 | 255 | 4.0 | 10.0 | 0.00 | 0.00 | 0.00 | 36 | 1019.7 |
| 20260506193010 | 58 | 277 | 4.0 | 10.0 | 0.00 | 0.00 | 0.00 | 32 | 1019.8 |
| 20260506192508 | 59 | 253 | 3.0 | 10.0 | 0.00 | 0.00 | 0.00 | 33 | 1019.8 |
| 20260506192009 | 59 | 261 | 3.0 | 10.0 | 0.00 | 0.00 | 0.00 | 33 | 1019.8 |
| 20260506191010 | 58 | 278 | 3.0 | 10.0 | 0.00 | 0.00 | 0.00 | 33 | 1019.9 |
| 20260506190508 | 58 | 274 | 4.0 | 10.0 | 0.00 | 0.00 | 0.00 | 33 | 1019.8 |
| 20260506190008 | 58 | 264 | 3.0 | 13.0 | 0.00 | 0.00 | 0.00 | 32 | 1019.9 |
| 20260506185509 | 58 | 335 | 3.0 | 13.0 | 0.00 | 0.00 | 0.00 | 34 | 1019.9 |
| 20260506185011 | 58 | 319 | 7.0 | 13.0 | 0.00 | 0.00 | 0.00 | 34 | 1019.9 |
| 20260506184508 | 58 | 256 | 3.0 | 12.0 | 0.00 | 0.00 | 0.00 | 34 | 1020.0 |
| 20260506183509 | 58 | 265 | 4.0 | 12.0 | 0.00 | 0.00 | 0.00 | 34 | 1020.3 |
| 20260506183010 | 58 | 300 | 1.0 | 10.0 | 0.00 | 0.00 | 0.00 | 38 | 1020.3 |
| 20260506182508 | 58 | 259 | 2.0 | 10.0 | 0.00 | 0.00 | 0.00 | 35 | 1020.1 |
| 20260506181512 | 58 | 251 | 5.0 | 12.0 | 0.00 | 0.00 | 0.00 | 34 | 1020.3 |
| 20260506181010 | 59 | 258 | 6.0 | 12.0 | 0.00 | 0.00 | 0.00 | 33 | 1020.3 |
| 20260506180509 | 59 | 262 | 3.0 | 12.0 | 0.00 | 0.00 | 0.00 | 37 | 1020.3 |
| 20260506175509 | 58 | 261 | 3.0 | 12.0 | 0.00 | 0.00 | 0.00 | 34 | 1020.5 |
| 20260506175010 | 58 | 342 | 3.0 | 12.0 | 0.00 | 0.00 | 0.00 | 35 | 1020.5 |
| 20260506174508 | 58 | 282 | 5.0 | 12.0 | 0.00 | 0.00 | 0.00 | 35 | 1020.6 |
| 20260506174009 | 58 | 303 | 4.0 | 12.0 | 0.00 | 0.00 | 0.00 | 36 | 1020.7 |
| 20260506173011 | 58 | 263 | 3.0 | 10.0 | 0.00 | 0.00 | 0.00 | 34 | 1020.9 |
| 20260506172509 | 58 | 278 | 2.0 | 10.0 | 0.00 | 0.00 | 0.00 | 35 | 1020.9 |
| 20260506171510 | 58 | 295 | 3.0 | 7.0 | 0.00 | 0.00 | 0.00 | 38 | 1020.9 |
| 20260506170509 | 57 | 257 | 6.0 | 13.0 | 0.00 | 0.00 | 0.00 | 36 | 1021.0 |
| 20260506170010 | 56 | 255 | 2.0 | 12.0 | 0.00 | 0.00 | 0.00 | 38 | 1021.0 |
| 20260506165509 | 56 | 258 | 4.0 | 12.0 | 0.00 | 0.00 | 0.00 | 35 | 1021.0 |
| 20260506165010 | 56 | 200 | 3.0 | 12.0 | 0.00 | 0.00 | 0.00 | 37 | 1021.0 |
| 20260506164510 | 56 | 283 | 3.0 | 12.0 | 0.00 | 0.00 | 0.00 | 39 | 1021.0 |
| 20260506164010 | 55 | 280 | 3.0 | 12.0 | 0.00 | 0.00 | 0.00 | 38 | 1021.1 |
| 20260506163510 | 55 | 255 | 2.0 | 10.0 | 0.00 | 0.00 | 0.00 | 40 | 1021.1 |
| 20260506163011 | 55 | 251 | 2.0 | 5.0 | 0.00 | 0.00 | 0.00 | 39 | 1021.2 |
| 20260506162010 | 54 | 264 | 3.0 | 9.0 | 0.00 | 0.00 | 0.00 | 40 | 1021.0 |
| 20260506161509 | 54 | 247 | 4.0 | 9.0 | 0.00 | 0.00 | 0.00 | 40 | 1021.1 |
| 20260506160510 | 53 | 321 | 3.0 | 9.0 | 0.00 | 0.00 | 0.00 | 41 | 1021.2 |
| 20260506160010 | 53 | 327 | 2.0 | 9.0 | 0.00 | 0.00 | 0.00 | 43 | 1021.1 |
| 20260506155510 | 53 | 249 | 3.0 | 9.0 | 0.00 | 0.00 | 0.00 | 43 | 1021.1 |
| 20260506155011 | 52 | 200 | 5.0 | 9.0 | 0.00 | 0.00 | 0.00 | 42 | 1021.1 |
| 20260506154509 | 52 | 268 | 3.0 | 9.0 | 0.00 | 0.00 | 0.00 | 41 | 1021.1 |
| 20260506154010 | 53 | 257 | 4.0 | 9.0 | 0.00 | 0.00 | 0.00 | 42 | 1021.0 |
| 20260506153010 | 53 | 318 | 3.0 | 12.0 | 0.00 | 0.00 | 0.00 | 42 | 1021.0 |
| 20260506152509 | 52 | 271 | 2.0 | 12.0 | 0.00 | 0.00 | 0.00 | 42 | 1021.1 |
| 20260506152010 | 52 | 253 | 3.0 | 10.0 | 0.00 | 0.00 | 0.00 | 43 | 1021.1 |
| 20260506151511 | 52 | 267 | 2.0 | 7.0 | 0.00 | 0.00 | 0.00 | 44 | 1021.1 |
| 20260506151010 | 51 | 250 | 3.0 | 12.0 | 0.00 | 0.00 | 0.00 | 44 | 1021.1 |
| 20260506150510 | 51 | 338 | 6.0 | 12.0 | 0.00 | 0.00 | 0.00 | 43 | 1021.1 |
| 20260506150008 | 51 | 18 | 2.0 | 10.0 | 0.00 | 0.00 | 0.00 | 44 | 1021.1 |
| 20260506145508 | 50 | 355 | 6.0 | 10.0 | 0.00 | 0.00 | 0.00 | 44 | 1021.3 |
| 20260506145009 | 50 | 351 | 5.0 | 9.0 | 0.00 | 0.00 | 0.00 | 45 | 1021.1 |
| 20260506144010 | 49 | 256 | 1.0 | 5.0 | 0.00 | 0.00 | 0.00 | 47 | 1021.3 |
| 20260506143509 | 49 | 311 | 1.0 | 6.0 | 0.00 | 0.00 | 0.00 | 48 | 1021.3 |
| 20260506143009 | 49 | 350 | 2.0 | 6.0 | 0.00 | 0.00 | 0.00 | 48 | 1021.3 |
| 20260506142509 | 49 | 12 | 3.0 | 5.0 | 0.00 | 0.00 | 0.00 | 50 | 1021.2 |
| 20260506142009 | 48 | 333 | 1.0 | 3.0 | 0.00 | 0.00 | 0.00 | 50 | 1021.2 |
| 20260506141508 | 48 | 288 | 1.0 | 3.0 | 0.00 | 0.00 | 0.00 | 52 | 1021.2 |
| 20260506141010 | 48 | 323 | 2.0 | 3.0 | 0.00 | 0.00 | 0.00 | 52 | 1021.1 |
| 20260506140509 | 48 | 346 | 1.0 | 3.0 | 0.00 | 0.00 | 0.00 | 52 | 1021.1 |
| 20260506140008 | 48 | 0 | 2.0 | 3.0 | 0.00 | 0.00 | 0.00 | 52 | 1021.1 |
| 20260506135508 | 48 | 0 | 1.0 | 3.0 | 0.00 | 0.00 | 0.00 | 53 | 1021.1 |
| 20260506135009 | 48 | 0 | 1.0 | 3.0 | 0.00 | 0.00 | 0.00 | 53 | 1021.0 |
| 20260506134510 | 48 | 0 | 2.0 | 3.0 | 0.00 | 0.00 | 0.00 | 54 | 1021.0 |
| 20260506133509 | 47 | 332 | 1.0 | 3.0 | 0.00 | 0.00 | 0.00 | 54 | 1021.0 |
| 20260506133011 | 47 | 257 | 2.0 | 6.0 | 0.00 | 0.00 | 0.00 | 54 | 1020.9 |
| 20260506132009 | 46 | 336 | 3.0 | 8.0 | 0.00 | 0.00 | 0.00 | 54 | 1020.8 |
| 20260506131510 | 46 | 349 | 3.0 | 8.0 | 0.00 | 0.00 | 0.00 | 55 | 1020.8 |
| 20260506131010 | 45 | 350 | 3.0 | 6.0 | 0.00 | 0.00 | 0.00 | 56 | 1020.7 |
| 20260506130508 | 45 | 1 | 2.0 | 3.0 | 0.00 | 0.00 | 0.00 | 57 | 1020.7 |
| 20260506130010 | 44 | 1 | 2.0 | 3.0 | 0.00 | 0.00 | 0.00 | 59 | 1020.7 |
| 20260506125509 | 44 | 344 | 2.0 | 5.0 | 0.00 | 0.00 | 0.00 | 60 | 1020.7 |
| 20260506125009 | 43 | 325 | 2.0 | 5.0 | 0.00 | 0.00 | 0.00 | 61 | 1020.7 |
| 20260506124509 | 43 | 351 | 3.0 | 5.0 | 0.00 | 0.00 | 0.00 | 63 | 1020.6 |
| 20260506124009 | 42 | 5 | 3.0 | 5.0 | 0.00 | 0.00 | 0.00 | 66 | 1020.6 |
| 20260506123510 | 41 | 349 | 1.0 | 3.0 | 0.00 | 0.00 | 0.00 | 68 | 1020.6 |
| 20260506123010 | 40 | 340 | 1.0 | 3.0 | 0.00 | 0.00 | 0.00 | 69 | 1020.5 |
| 20260506122509 | 39 | 350 | 1.0 | 3.0 | 0.00 | 0.00 | 0.00 | 71 | 1020.3 |
| 20260506122009 | 38 | 348 | 2.0 | 3.0 | 0.00 | 0.00 | 0.00 | 72 | 1020.3 |
| 20260506121510 | 38 | 345 | 1.0 | 3.0 | 0.00 | 0.00 | 0.00 | 73 | 1020.3 |
| 20260506120509 | 37 | 350 | 0.0 | 0.0 | 0.00 | 0.00 | 0.00 | 70 | 1020.2 |
| 20260506120010 | 37 | 323 | 0.0 | 0.0 | 0.00 | 0.00 | 0.00 | 70 | 1020.0 |
| 20260506115510 | 37 | 0 | 0.0 | 0.0 | 0.00 | 0.00 | 0.00 | 68 | 1019.8 |
| 20260506115011 | 37 | 316 | 0.0 | 0.0 | 0.00 | 0.00 | 0.00 | 67 | 1019.8 |